Regional Weather Roundup
Issued by NWS

Home | Current Version | Previous Version | Text Only | Print | Product List | Glossary Off
Versions: 1 2 3 4 5 6 7 8 9 10 11 12 13 14 15 16 17 18 19 20 21 22 23 24 25 26 27 28 29 30 31 32 33 34 35 36 37 38 39 40 41 42 43 44 45 46 47 48 49

000
ASUS43 KDMX 271407
RWRIA

WEATHER ROUNDUP FOR IOWA
NATIONAL WEATHER SERVICE DES MOINES IA
800 AM CST THU NOV 27 2014

NOTE: "FAIR" INDICATES FEW OR NO CLOUDS BELOW 12,000 FEET WITH NO
SIGNIFICANT WEATHER AND/OR OBSTRUCTIONS TO VISIBILITY.

* - THESE STATIONS ARE NOT NWS STATIONS...THUS NOT UNDER NWS
QUALITY CONTROL.  THEY ALSO DO NOT REPORT WEATHER SUCH
AS PRECIPITATION OR FOG.

IAZ001>003-012>014-020>022-031>034-043>046-271500-
   NORTHWEST IOWA

CITY           SKY/WX    TMP DP  RH WIND       PRES   REMARKS
CARROLL *      CLEAR     -2  -9  71 N7        30.51S WCI -16
CHEROKEE *     PTCLDY    -6  -9  84 CALM      30.51R
DENISON *      PTCLDY     3  -9  55 NE7       30.49S WCI  -9
LE MARS *      CLEAR     -2  -8  78 CALM      30.52S
ORANGE CITY *  CLEAR      0  -9  65 CALM      30.46F
SHELDON *      CLEAR     -8 -13  77 N3        30.47F
SIOUX CITY     PTCLDY     8  -9  45 NE7       30.53S WCI  -3
SPENCER        PTCLDY   N/A N/A N/A SW8       30.50R
STORM LAKE *   CLEAR     -4 -13  65 N9        30.48S WCI -20
$$

IAZ055>058-069>071-079>083-090>094-271500-
   SOUTHWEST IOWA

CITY           SKY/WX    TMP DP  RH WIND       PRES   REMARKS
ATLANTIC *     CLEAR      7  -2  66 N3        30.51R
AUDUBON *      CLEAR      1  -8  66 CALM      30.49S
CLARINDA *     MOCLDY    16   9  73 N7        30.53S WCI   6
COUNCIL BLFS * CLOUDY    14   9  79 NE8       30.49S WCI   3
CRESTON *      CLEAR      7  -2  66 N8        30.49S WCI  -6
HARLAN  *      PTCLDY     7  -6  56 N8        30.54S WCI  -6
LAMONI         PTCLDY    13   5  70 N10       30.49R WCI   0
RED OAK *      MOCLDY    14   7  73 N9        30.52R WCI   2
SHENANDOAH *   CLOUDY    18  12  79 N8        30.54R WCI   7
$$

IAZ047>049-059>061-072>074-084-271500-
   CENTRAL IOWA

CITY           SKY/WX    TMP DP  RH WIND       PRES   REMARKS
AMES           MOCLDY    -2  -8  76 NW13      30.51S WCI -20
ANKENY *       CLEAR      1  -6  71 NW10      30.53R WCI -14
CHARITON *     CLEAR      9   3  78 NW10      30.50R WCI  -6
DES MOINES     MOCLDY     4  -4  69 NW9       30.52R WCI -10
GRINNELL*      PTCLDY     1  -2  85 NW12      30.48R WCI -15
KNOXVILLE *    PTCLDY     5  -2  72 NW8       30.50R WCI  -8
MARSHALLTOWN   PTCLDY    -1  -6  79 NW9       30.47S WCI -16
PELLA *        PTCLDY     5   0  78 NW10      30.52R WCI -10
PERRY *          N/A      0  -6  78 N9        30.52S WCI -16
$$

IAZ004>006-015-016-023>025-035-036-271500-
   NORTH CENTRAL IOWA

CITY           SKY/WX    TMP DP  RH WIND       PRES   REMARKS
ALGONA *       CLEAR     -9 -17  70 NW8       30.50S WCI -26
CLARION *      PTCLDY    -9 -17  70 N8        30.49F WCI -26
ESTHERVILLE    PTCLDY   -11 -15  82 NW8       30.48S WCI -28
FORT DODGE *   PTCLDY    -6 -11  77 N7        30.51R WCI -20
MASON CITY     PTCLDY    -9 -13  83 NW10      30.49R WCI -27
FOREST CITY *    N/A     -8 -11  84 NW8       30.47S WCI -23
IOWA FALLS *     N/A     -4  -8  84 NW12      30.48F WCI -22
$$

IAZ007>011-017>019-026>030-037>042-050>054-066-271500-
   NORTHEAST IOWA

CITY           SKY/WX    TMP DP  RH WIND       PRES   REMARKS
CEDAR RAPIDS   PTCLDY    10   6  84 NW16      30.44R WCI  -7
CHARLES CITY * CLEAR     -2  -9  71 NW12      30.47R WCI -20
CLINTON *      CLOUDY    23  16  74 NW13      30.40R WCI  11
DECORAH *      CLEAR      5  -2  72 NW10G16   30.41R WCI -10
DUBUQUE        CLOUDY    20  14  77 NW10      30.36R WCI   9
MONTICELLO *   CLOUDY    16  10  79 NW15G22   30.41R WCI   1
OELWEIN *      CLEAR      5  -2  72 NW15      30.44R WCI -13
WATERLOO       PTCLDY     2  -4  76 NW16      30.47R WCI -18
$$

IAZ064-065-067-068-078-271500-
   EAST CENTRAL IOWA

CITY           SKY/WX    TMP DP  RH WIND       PRES   REMARKS
DAVENPORT      LGT SNOW  21  16  81 NW16      30.39R WCI   7
IOWA CITY      CLOUDY    15  10  80 NW18      30.47R WCI  -2
MT. PLEASANT * PTCLDY    16  12  86 W10G16    30.46R WCI   3
MUSCATINE *    FLURRIES  21  16  79 NW20      30.45R WCI   6
QUAD CITIES    LGT SNOW  23  18  81 W16       30.40R WCI  10
$$

IAZ062-063-075>077-085>089-095>099-271500-
   SOUTHEAST IOWA

CITY           SKY/WX    TMP DP  RH WIND       PRES   REMARKS
BURLINGTON     CLOUDY    20  15  81 NW15      30.44R WCI   6
FAIRFIELD *    CLOUDY    14   9  79 NW10G17   30.48R WCI   1
FORT MADISON * CLOUDY    21  18  86 NW12      30.46R WCI   9
KEOKUK *       CLOUDY    23  18  80 NW15G21   30.45R WCI  10
OSKALOOSA *      N/A      7   3  85 NW14      30.50R WCI -10
CENTERVILLE *  FLURRIES  18  14  86 NW9       30.49R WCI   6
OTTUMWA        PTCLDY     9   4  80 NW14      30.48S WCI  -7
WASHINGTON *   CLOUDY    16  14  93 W17       30.46R WCI   0
$$

ABBREVIATIONS USED IN REMARKS
   TC - TEMPERATURES IN CELSIUS
  WCI - WIND CHILL INDEX
   HX - HEAT INDEX
  VSB - VISIBILITY
$$



USA.gov is the U.S. government's official web portal to all federal, state and local government web resources and services.